User: anonymous   Login
Location: CNYAC Observatory
(43.2150°N, 74.9500°W)
Time: 21:56:09
(UTC-04:00)
Language:

Meteor 1-22 Rocket - Orbit

View from above orbital plane
View from above orbital plane
View from above satellite
View from above satellite

Ground track
Ground track

The orbit data is extracted from the following two-line orbital elements,

1  8294U 75087B   16118.95880558 +.00000135 +00000-0 +67437-4 0  9995
2  8294 081.2145 067.1919 0106249 133.0068 228.0067 14.08562285086147
Epoch (UTC): 27 April 2016 23:00:40
Eccentricity: 0.0106249
inclination: 81.2145°
perigee height: 787 km
apogee height: 941 km
right ascension of ascending node: 67.1919°
argument of perigee: 133.0068°
revolutions per day: 14.08562285
mean anomaly at epoch: 228.0067°
orbit number at epoch: 8614

The dashed part of the orbit path shows where the satellite is in the earth's shadow,  

DLR